FENGYUN 1C DEB, 30370

Orbit data source: Space-Track

FENGYUN 1C DEB, 30370 is space debris in SSO originally from a launch on Mon, 10 May 1999 UTC launched from the Taiyaun Space Center, China (TSC). Fengyun 1C debris stems from the Chinese weather satellite Fengyun-1C, which was intentionally destroyed by a Chinese anti-satellite missile in 2007. This event dramatically increased the amount of space debris, with thousands of trackable fragments posing hazards to satellites and human spaceflight. The Fengyun 1C debris cloud has become a focal point in discussions about space sustainability and the need for international regulations to prevent the creation of new debris.

Loading next visibility...
Identifier
30370, 1999-025ACH
Orbit
SSO
Country
Flag of CNCN / PRC
Related business
Manufacturer
Unknown
Mission
Spacecraft
Bus & Motor
Unknown
Mass
Unknown
Launch date (UTC)
1999-05-10 (27 years ago)
Launch vehicle
Unknown
Launch site
Taiyaun Space Center, China (TSC)
Object type
Payload
Rocket body
Debris
Shape & HBR
Unknown shape, 0.1 m
Radar Cross Section
Small (<0.1 m²)

Expand to show TLE details & history
Last TLE update: 20 hours ago

TLE from 20 hours ago
0 FENGYUN 1C DEB
1 30370U 99025ACH 26072.61667137  .00002042  00000-0  94003-3 0  9999
2 30370  99.0447 135.5502 0099831  59.5162  67.0066 14.19650636983834
Epoch: 2026-03-13T14:48Z
TLE epoch observation values (Epoch: 2026-03-13T14:48:00.406Z)
Latitude
51.60407°
Longitude
-66.17568°
Altitude
807.33 km
Speed
7.469 km/s
True Right ascension
21h 48m 18s
True Declination
51° 26' 16"
Sunlit
Object was in daylight at epoch
Visualization orbit readout
Latitude
Unknown
Longitude
Unknown
Altitude
Unknown
Speed
Unknown
Apparent Right ascension
Unknown
Apparent Declination
Unknown
Sunlit
N/A
Visualization observer readout
Local Sidereal Time
14:46:18
Azimuth
Unknown
Elevation
Unknown
Doppler factor
Unknown
Orbital elements
Apogee altitude
895.606 km
Perigee altitude
751.813 km
Semi-major axis
7,201.847 km
Eccentricity
0.00998
Inclination
99.0447°
RAAN
135.5502°
Arg. of periapsis
59.5162°
True anomaly
68.06479°
Mean anomaly
67.0066°
Eccentric anomaly
67.53518°
Mean motion
3.55122 °/min
Orbital period
101.37 mins
BSTAR
0.00094003
Loading maneuver chart data...
Computing Atmospheric mass density...

Documentation

Showing up to 5 results
|